Ogden Hill AFB, UT

2:52 AM MDT on April 23, 2017 (GMT -0600)
Hill Air Force Base

Weather History for KHIF - November, 2011

Change the Weather History Date:

Thursday, November 17, 2011

  Actual Average Record
Temperature  
Mean Temperature 42 °F -  
Max Temperature 50 °F 43 °F 60 °F (1999)
Min Temperature 33 °F 29 °F 14 °F (2000)
Degree Days  
Heating Degree Days 24    
Moisture  
Dew Point 20 °F    
Average Humidity 39    
Maximum Humidity 49    
Minimum Humidity 33    
Precipitation  
Precipitation 0.00 in - - ()
Sea Level Pressure  
Sea Level Pressure 29.88 in    
Wind  
Wind Speed 11 mph (ESE)    
Max Wind Speed 17 mph    
Max Gust Speed 25 mph    
Visibility 10 miles    
Events      
Averages and records for this station are not official NWS values.
T = Trace of Precipitation, MM = Missing Value Source: NWS Daily Summary

Daily Weather History Graph

Daily Weather History Graph

Search for Another Location

Airport or City:

Trip Planner

Search our weather history database for the weather conditions in past years. The results will help you decide how hot, cold, wet, or windy it might be!

Date:

Astronomy

Nov. 17, 2011 Rise Set
Actual Time 7:17 AM MST 5:07 PM MST
Civil Twilight 6:48 AM MST 5:37 PM MST
Nautical Twilight 6:14 AM MST 6:10 PM MST
Astronomical Twilight 5:42 AM MST 6:43 PM MST
Moon 11:33 PM MST (11/17) 12:27 PM MST (11/17)
Length of Visible Light 10h 49m
Length of Day
9h 49m
Waning Gibbous, 59% of the Moon is Illuminated
Nov 17
Waning Gibbous
Nov 18
Last Quarter
Nov 24
New
Dec 2
First Quarter
Dec 10
Full

Hourly Weather History & Observations

Time (MST) Temp. Windchill Dew Point Humidity Pressure Visibility Wind Dir Wind Speed Gust Speed Precip Events Conditions
12:08 AM 33.8 °F 27.0 °F 14.0 °F 44% 30.21 in 10.0 mi East 8.1 mph - N/A   Overcast
12:13 AM 33.8 °F 27.0 °F 12.2 °F 41% 30.21 in 10.0 mi East 8.1 mph - N/A   Mostly Cloudy
12:21 AM 33.8 °F 27.0 °F 12.2 °F 41% 30.20 in 10.0 mi ENE 8.1 mph - N/A   Mostly Cloudy
12:55 AM 35.1 °F 29.3 °F 12.9 °F 40% 30.20 in 10.0 mi East 6.9 mph - N/A   Overcast
1:55 AM 35.6 °F 29.9 °F 13.1 °F 40% 30.18 in 10.0 mi East 6.9 mph - N/A   Overcast
2:55 AM 34.3 °F 27.0 °F 13.1 °F 42% 30.18 in 10.0 mi East 9.2 mph - N/A   Overcast
3:10 AM 35.6 °F 28.0 °F 12.2 °F 38% 30.17 in 10.0 mi East 10.4 mph - N/A   Overcast
3:11 AM 35.6 °F 28.0 °F 12.2 °F 38% 30.17 in 10.0 mi East 10.4 mph - N/A   Overcast
3:55 AM 34.3 °F 26.5 °F 13.8 °F 43% 30.16 in 10.0 mi East 10.4 mph - N/A   Overcast
4:55 AM 34.9 °F 27.7 °F 14.2 °F 43% 30.16 in 10.0 mi East 9.2 mph - N/A   Overcast
5:33 AM 33.8 °F 26.4 °F 14.0 °F 44% 30.14 in 10.0 mi East 9.2 mph - N/A   Overcast
5:34 AM 33.8 °F 26.4 °F 14.0 °F 44% 30.14 in 10.0 mi East 9.2 mph - N/A   Overcast
5:42 AM 35.6 °F 28.0 °F 14.0 °F 41% 30.14 in 10.0 mi East 10.4 mph - N/A   Overcast
5:55 AM 34.7 °F 27.5 °F 14.5 °F 44% 30.14 in 10.0 mi East 9.2 mph - N/A   Overcast
6:55 AM 34.9 °F 26.6 °F 14.5 °F 43% 30.13 in 10.0 mi East 11.5 mph - N/A   Overcast
7:55 AM 34.3 °F 26.5 °F 15.3 °F 46% 30.11 in 10.0 mi East 10.4 mph - N/A   Partly Cloudy
8:55 AM 41.9 °F 34.3 °F 15.6 °F 35% 30.07 in 10.0 mi SE 15.0 mph - N/A   Mostly Cloudy
9:55 AM 41.9 °F 39.0 °F 18.7 °F 39% 30.06 in 10.0 mi Variable 4.6 mph - N/A   Overcast
10:55 AM 46.9 °F - 18.7 °F 33% 30.03 in 10.0 mi SSE 15.0 mph - N/A   Overcast
11:31 AM 46.4 °F 39.8 °F 19.4 °F 34% 30.02 in 10.0 mi SE 16.1 mph - N/A   Overcast
11:55 AM 47.3 °F - 19.8 °F 34% 30.01 in 10.0 mi SSE 13.8 mph - N/A   Overcast
12:55 PM 46.8 °F - 21.4 °F 37% 29.97 in 10.0 mi SSE 8.1 mph - N/A   Mostly Cloudy
1:55 PM 47.1 °F - 22.3 °F 38% 29.94 in 10.0 mi SSE 8.1 mph - N/A   Overcast
2:55 PM 47.3 °F - 21.7 °F 36% 29.91 in 10.0 mi SE 4.6 mph - N/A   Overcast
3:55 PM 49.3 °F - 23.0 °F 36% 29.86 in 10.0 mi SE 10.4 mph - N/A   Overcast
4:55 PM 49.6 °F - 22.1 °F 34% 29.81 in 10.0 mi SE 11.5 mph - N/A   Mostly Cloudy
5:55 PM 48.9 °F - 22.3 °F 35% 29.79 in 10.0 mi SE 11.5 mph - N/A   Overcast
5:57 PM 48.2 °F - 23.0 °F 37% 29.79 in 10.0 mi SE 11.5 mph - N/A   Overcast
5:59 PM 48.2 °F - 23.0 °F 37% 29.78 in 10.0 mi SE 11.5 mph - N/A   Overcast
6:09 PM 48.2 °F - 23.0 °F 37% 29.78 in 10.0 mi SE 12.7 mph - N/A   Overcast
6:16 PM 48.2 °F - 23.0 °F 37% 29.78 in 10.0 mi SE 12.7 mph - N/A   Overcast
6:29 PM 48.2 °F - 23.0 °F 37% 29.77 in 10.0 mi SE 13.8 mph - N/A   Overcast
6:31 PM 48.2 °F - 23.0 °F 37% 29.77 in 10.0 mi SE 13.8 mph - N/A   Overcast
6:55 PM 49.8 °F - 21.7 °F 33% 29.75 in 10.0 mi SE 17.3 mph 25.3 mph N/A   Overcast
7:08 PM 50.0 °F - 23.0 °F 35% 29.75 in 10.0 mi SE 17.3 mph - N/A   Overcast
7:50 PM 50.0 °F - 23.0 °F 35% 29.73 in 10.0 mi SE 13.8 mph - N/A   Overcast
7:55 PM 49.6 °F - 22.6 °F 35% 29.73 in 10.0 mi SE 13.8 mph - N/A   Overcast
7:57 PM 50.0 °F - 23.0 °F 35% 29.73 in 10.0 mi SE 15.0 mph - N/A   Overcast
7:58 PM 50.0 °F - 23.0 °F 35% 29.73 in 10.0 mi SE 16.1 mph - N/A   Overcast
8:04 PM 50.0 °F - 23.0 °F 35% 29.72 in 10.0 mi SE 15.0 mph - N/A   Overcast
8:05 PM 50.0 °F - 23.0 °F 35% 29.72 in 10.0 mi SE 15.0 mph - N/A   Overcast
8:06 PM 50.0 °F - 23.0 °F 35% 29.72 in 10.0 mi SE 13.8 mph - N/A   Overcast
8:38 PM 50.0 °F - 23.0 °F 35% 29.71 in 10.0 mi SE 11.5 mph - N/A   Overcast
8:39 PM 50.0 °F - 23.0 °F 35% 29.71 in 10.0 mi SE 11.5 mph - N/A   Overcast
8:40 PM 50.0 °F - 23.0 °F 35% 29.71 in 10.0 mi SE 12.7 mph - N/A   Overcast
8:55 PM 49.6 °F - 23.4 °F 36% 29.68 in 10.0 mi SE 12.7 mph - N/A   Overcast
9:04 PM 50.0 °F - 23.0 °F 35% 29.68 in 10.0 mi SE 13.8 mph - N/A   Overcast
9:23 PM 50.0 °F - 23.0 °F 35% 29.67 in 10.0 mi SE 15.0 mph - N/A   Overcast
9:27 PM 50.0 °F - 23.0 °F 35% 29.67 in 10.0 mi SSE 13.8 mph - N/A   Overcast
9:30 PM 50.0 °F - 23.0 °F 35% 29.67 in 10.0 mi SE 16.1 mph - N/A   Overcast
9:55 PM 48.9 °F - 23.9 °F 38% 29.67 in 10.0 mi SE 15.0 mph - N/A   Overcast
10:55 PM 47.1 °F - 25.5 °F 43% 29.67 in 10.0 mi SE 10.4 mph - N/A   Overcast
11:32 PM 44.6 °F 39.7 °F 26.6 °F 49% 29.65 in 10.0 mi ESE 9.2 mph - N/A   Mostly Cloudy
11:33 PM 44.6 °F 39.7 °F 26.6 °F 49% 29.65 in 10.0 mi ESE 9.2 mph - N/A   Mostly Cloudy
11:35 PM 44.6 °F 39.2 °F 26.6 °F 49% 29.65 in 10.0 mi ESE 10.4 mph - N/A   Mostly Cloudy
11:37 PM 44.6 °F 39.2 °F 26.6 °F 49% 29.65 in 10.0 mi SE 10.4 mph - N/A   Mostly Cloudy
11:55 PM 46.9 °F - 25.0 °F 42% 29.64 in 10.0 mi SE 13.8 mph - N/A   Overcast